sat.trackr.live / text

‹ back to catalog

STARLINK-34713

NORAD 64906 · 2025-157C

PAYLOAD ACTIVE UNKNOWN

§ Identity

Operator
Country
US
Launch date
2025-07-26
Launch site
AFETR
Launch vehicle
Mass (kg)
RCS (m²)

Purposes: comms

External: N2YO · Heavens-Above · Gunter

§ Orbital elements

Epoch: 2026-05-24T23:23:10.427136Z

Period
94.10 min
Inclination
53.1612°
Eccentricity
0.0001085
Mean motion
15.30225681 rev/d
Perigee alt
474.4 km
Apogee alt
475.9 km
Semi-major
6,853.3 km
B*
5.6747e-4
RAAN
351.3122°
Arg perigee
75.2996°
Mean anomaly
284.8125°
Rev number
4,775

§ Raw data

STARLINK-347131 64906U 25157C   26144.97442624  .00016498  00000+0  56747-3 0  99992 64906  53.1612 351.3122 0001085  75.2996 284.8125 15.30225681 47750

JSON: /api/v1/satellites/64906 · /tle

For live sub-satellite position, see the globe view (requires WebGL).

§ Visibility from observer

Set your observer location to see the next 7 days of passes ≥ 10°. The values pass through the URL so the page stays shareable.

No JS? Fill the form by hand. The geolocation button needs JavaScript.